CZ-6A DEB, 60873

Orbit data source: Space-Track

CZ-6A DEB, 60873 is space debris in LEO originally from a launch on Tue, 06 Aug 2024 UTC launched from the Taiyaun Space Center, China (TSC). Debris objects in space refer to the collection of defunct objects orbiting the Earth. Examples of debris include non-operational satellites, rocket bodies, and fragments generated from explosions, collisions, or faulty payload assembly.

Loading next visibility...
Identifier
60873, 2024-140KC
Orbit
LEO
Country
Flag of CNCN / PRC
Related business
Manufacturer
SAST
Mission
Spacecraft
Bus & Motor
Unknown
Mass
Unknown
Launch date (UTC)
2024-08-06 (2 years ago)
Launch vehicle
Unknown
Launch site
Taiyaun Space Center, China (TSC)
Object type
Payload
Rocket body
Debris
Shape & HBR
Unknown shape, 0.1 m
Radar Cross Section
Medium (>0.1 m² and <1 m²)

Expand to show TLE details & history
Last TLE update: 14 hours ago

TLE from 14 hours ago
0 CZ-6A DEB
1 60873U 24140KC  26171.28421176  .00001087  00000-0  53761-3 0  9994
2 60873  89.1149 284.0714 0072340 188.1603 171.8414 14.15347601 95289
Epoch: 2026-06-20T06:49Z
TLE epoch observation values (Epoch: 2026-06-20T06:49:15.896Z)
Latitude
-0.00004°
Longitude
-86.74588°
Altitude
895.891 km
Speed
7.378 km/s
True Right ascension
18h 56m 17s
True Declination
0° 00' 00"
Sunlit
Object was in full shadow at epoch
Visualization orbit readout
Latitude
Unknown
Longitude
Unknown
Altitude
Unknown
Speed
Unknown
Apparent Right ascension
Unknown
Apparent Declination
Unknown
Sunlit
N/A
Visualization observer readout
Local Sidereal Time
07:19:18
Azimuth
Unknown
Elevation
Unknown
Doppler factor
Unknown
Orbital elements
Apogee altitude
890.289 km
Perigee altitude
785.885 km
Semi-major axis
7,216.224 km
Eccentricity
0.00723
Inclination
89.1149°
RAAN
284.0714°
Arg. of periapsis
188.1603°
True anomaly
171.958°
Mean anomaly
171.8414°
Eccentric anomaly
171.8998°
Mean motion
3.54061 °/min
Orbital period
101.68 mins
BSTAR
0.00053761
Loading maneuver chart data...
Computing Atmospheric mass density...
Loading historical data...
Loading historical data...
Loading historical data...
Loading historical data...
Loading historical data...
Loading historical data...
Loading historical data...

Documentation

Showing up to 5 results
|